datetime,inflow
1970-12-02,1812.74829
1970-12-03,1757.41724
1970-12-04,1939.10168
1970-12-05,1988.99036
1970-12-06,1921.39514
1970-12-07,1762.87549
1970-12-08,1336.3855
1970-12-09,1542.6051
1970-12-10,1791.87097
1970-12-11,1827.7511
1970-12-12,1732.64832
1970-12-13,1841.18433
1970-12-14,1586.99377
1970-12-15,1456.47656
1970-12-16,1462.66895
1970-12-17,1678.65442
1970-12-18,2241.87085
1970-12-19,2166.42358
1970-12-20,1776.43066
1970-12-21,2389.35669
1970-12-22,2778.25928
1970-12-23,2133.86646
1970-12-24,2185.47632
1970-12-25,2063.93823
1970-12-26,2464.24146
1970-12-27,2223.60742
1970-12-28,1933.66492
1970-12-29,1849.39697
1970-12-30,2099.01123
1970-12-31,2151.03955
1971-01-01,1943.32214
1971-01-02,2633.56958
1971-01-03,2287.09375
1971-01-04,2143.94849
1971-01-05,1991.57092
1971-01-06,2360.146
1971-01-07,2464.98682
1971-01-08,2320.604
1971-01-09,2112.51758
1971-01-10,1853.28809
1971-01-11,2092.01831
1971-01-12,2617.86548
1971-01-13,2585.20313
1971-01-14,2448.36328
1971-01-15,2635.20923
1971-01-16,2030.73694
1971-01-17,1864.73059
1971-01-18,2368.6311
1971-01-19,2557.77539
1971-01-20,2321.28003
1971-01-21,2325.24536
1971-01-22,1574.28894
1971-01-23,2348.3479
1971-01-24,2214.02368
1971-01-25,2696.83325
1971-01-26,2766.12109
1971-01-27,2644.72485
1971-01-28,2552.15283
1971-01-29,2439.70044
1971-01-30,2910.94238
1971-01-31,2865.15259
1971-02-01,3133.6106
1971-02-02,2782.14209
1971-02-03,2958.03418
1971-02-04,2644.104
1971-02-05,3112.05518
1971-02-06,2986.57056
1971-02-07,2978.4397
1971-02-08,3041.94116
1971-02-09,3199.15186
1971-02-10,3052.02344
1971-02-11,2576.03955
1971-02-12,2798.45044
1971-02-13,3164.99292
1971-02-14,3120.21606
1971-02-15,3064.62402
1971-02-16,3023.2063
1971-02-17,3106.12061
1971-02-18,2835.22339
1971-02-19,2987.34058
1971-02-20,3060.81421
1971-02-21,3027.33691
1971-02-22,3057.26318
1971-02-23,3094.19385
1971-02-24,2706.19141
1971-02-25,3263.86621
1971-02-26,1192.66663
1971-02-27,3013.29224
1971-02-28,3059.73267
1971-03-01,3058.67407
1971-03-02,3075.96777
1971-03-03,3130.9917
1971-03-04,3165.71411
1971-03-05,3182.3103
1971-03-06,3012.76587
1971-03-07,3340.26904
1971-03-08,3125.32593
1971-03-09,3054.34106
1971-03-10,3024.67261
1971-03-11,2751.34692
1971-03-12,3093.48267
1971-03-13,3185.87012
1971-03-14,3007.37427
1971-03-15,2795.12451
1971-03-16,3030.11206
1971-03-17,2920.85815
1971-03-18,2999.31396
1971-03-19,3222.99756
1971-03-20,3073.32422
1971-03-21,3239.22998
1971-03-22,2903.8584
1971-03-23,3127.86377
1971-03-24,3104.79834
1971-03-25,2972.00708
1971-03-26,3247.69873
1971-03-27,3118.18994
1971-03-28,2893.18018
1971-03-29,2828.625
1971-03-30,2979.31323
1971-03-31,2561.51489
1971-04-01,3062.82617
1971-04-02,2913.60083
1971-04-03,3157.61255
1971-04-04,3032.85449
1971-04-05,3171.51904
1971-04-06,2799.57275
1971-04-07,3071.8125
1971-04-08,3053.00098
1971-04-09,3204.33228
1971-04-10,3021.04126
1971-04-11,3383.02026
1971-04-12,1992.69604
1971-04-13,3234.95874
1971-04-14,3393.84741
1971-04-15,2949.71436
1971-04-16,3424.27173
1971-04-17,3252.03882
1971-04-18,3118.7854
1971-04-19,3088.68652
1971-04-20,2734.45142
1971-04-21,3358.3269
1971-04-22,3358.13745
1971-04-23,2887.68701
1971-04-24,3144.14844
1971-04-25,3014.14136
1971-04-26,3077.42261
1971-04-27,3134.73096
1971-04-28,3083.55786
1971-04-29,3018.69507
1971-04-30,2164.83154
1971-05-01,1120.2179
1971-05-02,814.607422
1971-05-03,1154.36035
1971-05-04,855.173645
1971-05-05,1045.84961
1971-05-06,1227.55615
1971-05-07,1845.08142
1971-05-08,942.33667
1971-05-09,902.729248
1971-05-10,1289.86182
1971-05-11,1196.5918
1971-05-12,851.48877
1971-05-13,1084.79895
1971-05-14,1014.69757
1971-05-15,964.147095
1971-05-16,1139.42664
1971-05-17,1151.68042
1971-05-18,992.307556
1971-05-19,819.137085
1971-05-20,978.952393
1971-05-21,1201.03821
1971-05-22,1001.83838
1971-05-23,1084.60217
1971-05-24,1134.60266
1971-05-25,984.569824
1971-05-26,1290.8446
1971-05-27,1236.24829
1971-05-28,2614.97705
1971-05-29,2472.89941
1971-05-30,1469.54846
1971-05-31,1203.26843
1971-06-01,1169.22656
1971-06-02,917.960938
1971-06-03,1567.67688
1971-06-04,913.461243
1971-06-05,865.934143
1971-06-06,795.614075
1971-06-07,993.179199
1971-06-08,1109.01001
1971-06-09,1239.00171
1971-06-10,966.778076
1971-06-11,1151.71143
1971-06-12,1160.4812
1971-06-13,781.925171
1971-06-14,2273.27686
1971-06-15,1111.22229
1971-06-16,1106.96326
1971-06-17,1142.63708
1971-06-18,1249.20972
1971-06-19,1251.97327
1971-06-20,1180.68774
1971-06-21,1491.50085
1971-06-22,1380.27173
1971-06-23,966.224365
1971-06-24,583.371155
1971-06-25,756.180969
1971-06-26,749.458435
1971-06-27,758.411743
1971-06-28,748.583618
1971-06-29,630.708069
1971-06-30,669.152161
1971-07-01,684.756714
1971-07-02,1225.88318
1971-07-03,1367.22339
1971-07-04,1206.95117
1971-07-05,1034.28577
1971-07-06,1535.9082
1971-07-07,1209.1261
1971-07-08,1407.10315
1971-07-09,889.46991
1971-07-10,1330.68469
1971-07-11,1491.03223
1971-07-12,948.891235
1971-07-13,964.968628
1971-07-14,1270.77588
1971-07-15,1244.50623
1971-07-16,1460.63562
1971-07-17,1939.82544
1971-07-18,1981.71753
1971-07-19,2008.64746
1971-07-20,2360.67603
1971-07-21,2627.37207
1971-07-22,2782.51416
1971-07-23,2759.07446
1971-07-24,1970.57458
1971-07-25,2389.73413
1971-07-26,1826.29968
1971-07-27,2583.12134
1971-07-28,2557.96606
1971-07-29,2410.7312
1971-07-30,1950.12207
1971-07-31,1989.3374
1971-08-01,2077.3147
1971-08-02,2161.5813
1971-08-03,2523.41406
1971-08-04,2421.75635
1971-08-05,2407.85571
1971-08-06,2152.93213
1971-08-07,2596.9126
1971-08-08,2240.12573
1971-08-09,2547.11865
1971-08-10,2752.5437
1971-08-11,2266.79565
1971-08-12,2243.10889
1971-08-13,2624.12256
1971-08-14,2195.53809
1971-08-15,1358.20654
1971-08-16,1796.41345
1971-08-17,1865.30811
1971-08-18,1988.68713
1971-08-19,1982.97339
1971-08-20,1284.65955
1971-08-21,1370.32739
1971-08-22,1970.88037
1971-08-23,2037.42944
1971-08-24,1811.75476
1971-08-25,1609.45984
1971-08-26,1867.55762
1971-08-27,1918.20911
1971-08-28,1781.90698
1971-08-29,1947.64832
1971-08-30,2033.93982
1971-08-31,2048.37988
1971-09-01,1792.95618
1971-09-02,1722.13245
1971-09-03,1867.95422
1971-09-04,1735.8761
1971-09-05,1506.52441
1971-09-06,1868.24512
1971-09-07,1816.78662
1971-09-08,1876.29736
1971-09-09,1891.14587
1971-09-10,1632.78662
1971-09-11,1795.74048
1971-09-12,1597.78503
1971-09-13,2045.49646
1971-09-14,1881.0686
1971-09-15,1757.89221
1971-09-16,1915.55981
1971-09-17,1486.86682
1971-09-18,1519.48547
1971-09-19,1447.58606
1971-09-20,1737.97156
1971-09-21,1607.9967
1971-09-22,1713.42993
1971-09-23,1579.6427
1971-09-24,1433.21362
1971-09-25,1387.91833
1971-09-26,1499.35779
1971-09-27,1806.8927
1971-09-28,1701.63867
1971-09-29,1769.80383
1971-09-30,652.681824
1971-10-01,969.53894
1971-10-02,1105.41125
1971-10-03,976.924011
1971-10-04,1350.00256
1971-10-05,1951.44641
1971-10-06,2340.52637
1971-10-07,1540.67517
1971-10-08,971.352661
1971-10-09,1154.26892
1971-10-10,804.147522
1971-10-11,1137.39771
1971-10-12,1649.89551
1971-10-13,1340.03308
1971-10-14,1347.97156
1971-10-15,1123.18115
1971-10-16,650.360657
1971-10-17,482.109314
1971-10-18,1231.4231
1971-10-19,1095.08801
1971-10-20,725.887024
1971-10-21,1202.72253
1971-10-22,1539.31958
1971-10-23,1194.33386
1971-10-24,569.216919
1971-10-25,631.69696
1971-10-26,1028.64673
1971-10-27,1298.41187
1971-10-28,1298.97949
1971-10-29,1209.40552
1971-10-30,1213.328
1971-10-31,784.497986
1971-11-01,1141.79346
1971-11-02,1292.59753
1971-11-03,1526.21301
1971-11-04,1467.83301
1971-11-05,1479.42834
1971-11-06,1522.37866
1971-11-07,1670.47058
1971-11-08,1571.37134
1971-11-09,1519.85229
1971-11-10,1165.21216
1971-11-11,1472.02478
1971-11-12,1522.53418
1971-11-13,1419.13232
1971-11-14,1379.54736
1971-11-15,1252.24207
1971-11-16,1322.63708
1971-11-17,1510.30298
1971-11-18,1019.59094
1971-11-19,1427.32947
1971-11-20,1299.58276
1971-11-21,1129.93982
1971-11-22,1177.77539
1971-11-23,1290.99634
1971-11-24,1116.39185
1971-11-25,773.765686
1971-11-26,799.403442
1971-11-27,752.457764
1971-11-28,717.722534
1971-11-29,883.595154
1971-11-30,1389.04602
1971-12-01,1276.84741
1971-12-02,1536.77466
1971-12-03,1568.51563
1971-12-04,939.635132
1971-12-05,752.446045
1971-12-06,1419.3042
1971-12-07,1734.32263
1971-12-08,1810.78979
1971-12-09,835.161804
1971-12-10,1685.40771
1971-12-11,1239.85046
1971-12-12,875.163818
1971-12-13,2052.9939
1971-12-14,1854.64832
1971-12-15,2155.8479
1971-12-16,1837.84595
1971-12-17,1691.73926
1971-12-18,1501.88196
1971-12-19,1011.07489
1971-12-20,2154.03101
1971-12-21,2080.49512
1971-12-22,2439.65552
1971-12-23,1495.08948
1971-12-24,646.602539
1971-12-25,764.558472
1971-12-26,940.029785
1971-12-27,1810.18323
1971-12-28,1738.3988
1971-12-29,1662.66089
1971-12-30,1832.81262
1971-12-31,1601.07593
1972-01-01,1491.13367
1972-01-02,586.195557
1972-01-03,1736.44238
1972-01-04,1962.17957
1972-01-05,2094.18359
1972-01-06,1866.60022
1972-01-07,1681.77698
1972-01-08,1291.34729
1972-01-09,676.825806
1972-01-10,1857.38599
1972-01-11,1830.52502
1972-01-12,1455.82544
1972-01-13,1497.72656
1972-01-14,1634.09949
1972-01-15,1563.07349
1972-01-16,798.987
1972-01-17,1612.85449
1972-01-18,1793.2937
1972-01-19,1717.48682
1972-01-20,1788.35608
1972-01-21,1616.54346
1972-01-22,1184.3103
1972-01-23,387.604034
1972-01-24,1614.30237
1972-01-25,1503.31689
1972-01-26,1711.9248
1972-01-27,1591.62366
1972-01-28,1594.33044
1972-01-29,1195.0603
1972-01-30,940.072632
1972-01-31,1457.96826
1972-02-01,1675.62048
1972-02-02,1530.05798
1972-02-03,1346.12451
1972-02-04,1256.48535
1972-02-05,1222.26758
1972-02-06,722.981201
1972-02-07,2023.75635
1972-02-08,1175.47217
1972-02-09,1159.78906
1972-02-10,1550.68555
1972-02-11,1130.40662
1972-02-12,1518.29236
1972-02-13,244.345047
1972-02-14,1649.60535
1972-02-15,1689.59912
1972-02-16,1131.70715
1972-02-17,1697.92212
1972-02-18,1135.7843
1972-02-19,1762.40735
1972-02-20,729.276855
1972-02-21,1382.90186
1972-02-22,1646.65112
1972-02-23,1539.53198
1972-02-24,1295.56836
1972-02-25,1617.14709
1972-02-26,1611.3551
1972-02-27,829.607971
1972-02-28,1874.09253
1972-02-29,1665.98535
1972-03-01,1440.09021
1972-03-02,1007.77374
1972-03-03,1186.47791
1972-03-04,960.874023
1972-03-05,1232.68384
1972-03-06,1272.47571
1972-03-07,1114.66016
1972-03-08,110.004082
1972-03-09,60.0094795
1972-03-10,1647.78467
1972-03-11,852.201538
1972-03-12,809.988953
1972-03-13,1631.93567
1972-03-14,1683.56287
1972-03-15,899.918335
1972-03-16,1527.95337
1972-03-17,937.358765
1972-03-18,509.687164
1972-03-19,372.418976
1972-03-20,1157.58167
1972-03-21,933.9198
1972-03-22,983.744324
1972-03-23,675.203918
1972-03-24,907.137695
1972-03-25,396.654907
1972-03-26,761.733276
1972-03-27,1520.78906
1972-03-28,857.527588
1972-03-29,1419.55432
1972-03-30,1087.42834
1972-03-31,1038.5603
1972-04-01,899.328308
1972-04-02,672.077698
1972-04-03,1283.95691
1972-04-04,1547.43091
1972-04-05,1175.50049
1972-04-06,1013.51245
1972-04-07,836.22345
1972-04-08,1309.43982
1972-04-09,662.103943
1972-04-10,1202.78992
1972-04-11,825.925171
1972-04-12,1014.32538
1972-04-13,1208.8031
1972-04-14,1057.9939
1972-04-15,805.3349
1972-04-16,881.485474
1972-04-17,1506.12817
1972-04-18,999.751831
1972-04-19,1333.44238
1972-04-20,703.841736
1972-04-21,1095.10229
1972-04-22,1264.09094
1972-04-23,1299.77759
1972-04-24,897.43042
1972-04-25,1354.10754
1972-04-26,910.292786
1972-04-27,1339.44275
1972-04-28,987.832642
1972-04-29,902.362854
1972-04-30,964.384277
1972-05-01,1715.44812
1972-05-02,1000.11682
1972-05-03,1133.23059
1972-05-04,1013.75482
1972-05-05,1323.67419
1972-05-06,737.11554
1972-05-07,805.773438
1972-05-08,1653.65942
1972-05-09,704.671814
1972-05-10,1254.01965
1972-05-11,674.164612
1972-05-12,1325.76245
1972-05-13,740.930481
1972-05-14,737.567444
1972-05-15,1520.53027
1972-05-16,1643.84253
1972-05-17,569.430176
1972-05-18,890.222961
1972-05-19,1608.65332
1972-05-20,591.900757
1972-05-21,930.561523
1972-05-22,1359.66345
1972-05-23,938.812195
1972-05-24,969.561707
1972-05-25,1086.05225
1972-05-26,586.497009
1972-05-27,710.365417
1972-05-28,1260.08032
1972-05-29,555.088928
1972-05-30,1743.10986
1972-05-31,1563.15527
1972-06-01,1012.50183
1972-06-02,680.543457
1972-06-03,359.923157
1972-06-04,491.389099
1972-06-05,1347.67627
1972-06-06,877.552063
1972-06-07,858.345398
1972-06-08,1441.72095
1972-06-09,1195.94934
1972-06-10,1088.41357
1972-06-11,981.26886
1972-06-12,1003.87708
1972-06-13,901.845276
1972-06-14,1185.59851
1972-06-15,1373.86902
1972-06-16,820.956665
1972-06-17,489.153473
1972-06-18,551.87854
1972-06-19,712.760498
1972-06-20,1489.48584
1972-06-21,2231.48389
1972-06-22,1644.91101
1972-06-23,1049.49329
1972-06-24,986.758545
1972-06-25,1033.57483
1972-06-26,1058.45532
1972-06-27,1029.03333
1972-06-28,1082.98767
1972-06-29,953.26178
1972-06-30,907.241577
1972-07-01,625.969482
1972-07-02,390.082733
1972-07-03,1155.83545
1972-07-04,491.8638
1972-07-05,1927.36182
1972-07-06,1274.88831
1972-07-07,766.46991
1972-07-08,771.847778
1972-07-09,740.48761
1972-07-10,1506.56311
1972-07-11,1509.46338
1972-07-12,1316.13928
1972-07-13,1260.88428
1972-07-14,1005.22589
1972-07-15,783.420288
1972-07-16,476.854584
1972-07-17,1449.85571
1972-07-18,1465.18298
1972-07-19,1391.49292
1972-07-20,899.218323
1972-07-21,876.122864
1972-07-22,1400.71777
1972-07-23,430.927063
1972-07-24,1180.51355
1972-07-25,1321.14856
1972-07-26,1496.75928
1972-07-27,991.055725
1972-07-28,681.358704
1972-07-29,788.291992
1972-07-30,957.655823
1972-07-31,1119.94751
1972-08-01,871.801575
1972-08-02,1375.26624
1972-08-03,754.69873
1972-08-04,739.105347
1972-08-05,1176.9071
1972-08-06,782.951477
1972-08-07,1488.91833
1972-08-08,1382.30017
1972-08-09,1424.83948
1972-08-10,1534.68079
1972-08-11,1502.36987
1972-08-12,808.899536
1972-08-13,640.236511
1972-08-14,1524.51733
1972-08-15,1374.69824
1972-08-16,642.178589
1972-08-17,1663.1051
1972-08-18,1549.73645
1972-08-19,1158.85889
1972-08-20,9.87700272
1972-08-21,1527.82275
1972-08-22,1632.78748
1972-08-23,1295.63086
1972-08-24,579.199524
1972-08-25,1408.44275
1972-08-26,757.670776
1972-08-27,723.79248
1972-08-28,1453.21631
1972-08-29,1360.09644
1972-08-30,1318.29895
1972-08-31,1294.99634
1972-09-01,1328.81921
1972-09-02,933.441284
1972-09-03,612.508667
1972-09-04,1261.1012
1972-09-05,1125.85486
1972-09-06,1074.70654
1972-09-07,1234.07202
1972-09-08,1401.78101
1972-09-09,947.380859
1972-09-10,1079.49805
1972-09-11,1050.67847
1972-09-12,1394.19165
1972-09-13,1384.96143
1972-09-14,1174.43042
1972-09-15,1134.92712
1972-09-16,1169.91052
1972-09-17,696.287903
1972-09-18,1528.01416
1972-09-19,1493.4762
1972-09-20,1253.86731
1972-09-21,999.306519
1972-09-22,757.518494
1972-09-23,967.015015
1972-09-24,1123.70032
1972-09-25,691.985291
1972-09-26,824.223633
1972-09-27,950.016663
1972-09-28,780.423279
1972-09-29,991.87323
1972-09-30,727.433228
1972-10-01,431.27
1972-10-02,797.77
1972-10-03,357.41
1972-10-04,979.24
1972-10-05,869.13
1972-10-06,426.91
1972-10-07,549.76
1972-10-08,335.55
1972-10-09,784.34
1972-10-10,706.07
1972-10-11,534.59
1972-10-12,608.86
1972-10-13,377.65
1972-10-14,171.99
1972-10-15,45.81
1972-10-16,759.87
1972-10-17,89.44
1972-10-18,199.07
1972-10-19,334.32
1972-10-20,303.18
1972-10-21,542.32
1972-10-22,336.23
1972-10-23,385.12
1972-10-24,343.58
1972-10-25,981.27
1972-10-26,1502.49
1972-10-27,1442.0
1972-10-28,711.44
1972-10-29,421.75
1972-10-30,1577.7
1972-10-31,483.51
1972-11-01,1253.33
1972-11-02,507.51
1972-11-03,960.08
1972-11-04,678.72
1972-11-05,321.46
1972-11-06,1375.79
1972-11-07,1329.52
1972-11-08,621.52
1972-11-09,724.68
1972-11-10,677.44
1972-11-11,1141.02
1972-11-12,730.78
1972-11-13,1544.51
1972-11-14,1135.37
1972-11-15,1110.85
1972-11-16,1366.02
1972-11-17,1746.81
1972-11-18,1066.58
1972-11-19,604.53
1972-11-20,1945.4
1972-11-21,1676.82
1972-11-22,1483.93
1972-11-23,302.09
1972-11-24,1633.27
1972-11-25,1558.32
1972-11-26,604.4
1972-11-27,1636.23
1972-11-28,2334.1
1972-11-29,1589.97
1972-11-30,1754.95
1972-12-01,1416.93
1972-12-02,857.59
1972-12-03,570.58
1972-12-04,1916.46
1972-12-05,1483.04
1972-12-06,2437.25
1972-12-07,1587.22
1972-12-08,1819.47
1972-12-09,1781.61
1972-12-10,879.05
1972-12-11,1871.11
1972-12-12,2034.78
1972-12-13,2070.07
1972-12-14,1962.08
1972-12-15,2120.82
1972-12-16,1789.45
1972-12-17,1168.44
1972-12-18,1367.78
1972-12-19,1892.25
1972-12-20,1992.56
1972-12-21,2189.3
1972-12-22,2059.38
1972-12-23,2547.25
1972-12-24,1751.88
1972-12-25,197.61
1972-12-26,1905.34
1972-12-27,2091.28
1972-12-28,2286.73
1972-12-29,2292.1
1972-12-30,2269.39
1972-12-31,2021.09
1973-01-01,1586.21
1973-01-02,1935.57
1973-01-03,2777.44
1973-01-04,2770.01
1973-01-05,2825.76
1973-01-06,1932.68
1973-01-07,2448.46
1973-01-08,2327.35
1973-01-09,2708.99
1973-01-10,2463.37
1973-01-11,2697.91
1973-01-12,2136.46
1973-01-13,2833.98
1973-01-14,1603.3
1973-01-15,2041.52
1973-01-16,2517.71
1973-01-17,1290.02
1973-01-18,1723.7
1973-01-19,1985.57
1973-01-20,1178.57
1973-01-21,673.9
1973-01-22,1238.14
1973-01-23,947.23
1973-01-24,904.87
1973-01-25,750.79
1973-01-26,1576.74
1973-01-27,634.06
1973-01-28,743.32
1973-01-29,917.05
1973-01-30,750.89
1973-01-31,1131.6
1973-02-01,895.06
1973-02-02,738.94
1973-02-03,678.58
1973-02-04,101.42
1973-02-05,1487.32
1973-02-06,1308.22
1973-02-07,693.66
1973-02-08,886.64
1973-02-09,1041.49
1973-02-10,868.9
1973-02-11,340.9
1973-02-12,790.89
1973-02-13,224.86
1973-02-14,380.08
1973-02-15,1171.84
1973-02-16,1511.08
1973-02-17,805.3
1973-02-18,505.32
1973-02-19,1159.06
1973-02-20,818.92
1973-02-21,505.57
1973-02-22,277.37
1973-02-23,622.2
1973-02-24,484.04
1973-02-25,205.56
1973-02-26,1075.73
1973-02-27,368.14
1973-02-28,441.26
1973-03-01,549.33
1973-03-02,826.46
1973-03-03,621.36
1973-03-04,458.05
1973-03-05,613.91
1973-03-06,399.35
1973-03-07,607.07
1973-03-08,245.11
1973-03-09,567.7
1973-03-10,672.03
1973-03-11,62.39
1973-03-12,1364.95
1973-03-13,828.14
1973-03-14,437.28
1973-03-15,534.31
1973-03-16,40.24
1973-03-17,541.21
1973-03-18,267.42
1973-03-19,1279.56
1973-03-20,1146.95
1973-03-21,1594.97
1973-03-22,617.68
1973-03-23,842.11
1973-03-24,365.91
1973-03-25,168.79
1973-03-26,613.81
1973-03-27,871.54
1973-03-28,451.09
1973-03-29,507.72
1973-03-30,390.54
1973-03-31,295.18
1973-04-01,530.31
1973-04-02,1169.11
1973-04-03,772.18
1973-04-04,501.31
1973-04-05,661.3
1973-04-06,508.54
1973-04-07,701.31
1973-04-08,485.88
1973-04-09,1170.39
1973-04-10,621.85
1973-04-11,824.79
1973-04-12,480.11
1973-04-13,1215.49
1973-04-14,591.7
1973-04-15,98.0
1973-04-16,1144.73
1973-04-17,788.52
1973-04-18,1005.9
1973-04-19,1579.81
1973-04-20,402.51
1973-04-21,567.88
1973-04-22,142.42
1973-04-23,1498.17
1973-04-24,1563.14
1973-04-25,1198.46
1973-04-26,1369.48
1973-04-27,372.9
1973-04-28,866.82
1973-04-29,552.11
1973-04-30,1651.4
1973-05-01,488.21
1973-05-02,1088.88
1973-05-03,883.23
1973-05-04,449.6
1973-05-05,349.89
1973-05-06,352.2
1973-05-07,2277.01
1973-05-08,1707.82
1973-05-09,1723.42
1973-05-10,2234.04
1973-05-11,742.72
1973-05-12,640.12
1973-05-13,660.08
1973-05-14,659.93
1973-05-15,670.18
1973-05-16,688.96
1973-05-17,897.26
1973-05-18,1342.35
1973-05-19,1157.0
1973-05-20,823.87
1973-05-21,742.44
1973-05-22,1485.9
1973-05-23,1569.92
1973-05-24,1247.45
1973-05-25,1666.78
1973-05-26,1925.52
1973-05-27,1103.69
1973-05-28,1583.92
1973-05-29,1219.15
1973-05-30,1707.64
1973-05-31,1636.07
1973-06-01,1938.41
1973-06-02,1765.97
1973-06-03,2180.43
1973-06-04,2299.71
1973-06-05,1930.35
1973-06-06,1749.17
1973-06-07,1199.98
1973-06-08,818.99
1973-06-09,983.23
1973-06-10,1114.85
1973-06-11,1018.91
1973-06-12,1392.88
1973-06-13,842.29
1973-06-14,1694.4
1973-06-15,1414.14
1973-06-16,578.76
1973-06-17,1261.7
1973-06-18,1221.65
1973-06-19,1039.08
1973-06-20,968.45
1973-06-21,542.98
1973-06-22,1575.15
1973-06-23,1105.17
1973-06-24,518.6
1973-06-25,1259.89
1973-06-26,669.75
1973-06-27,810.68
1973-06-28,930.07
1973-06-29,1328.8
1973-06-30,506.13
1973-07-01,674.84
1973-07-02,957.87
1973-07-03,1007.02
1973-07-04,843.83
1973-07-05,1131.22
1973-07-06,959.04
1973-07-07,363.01
1973-07-08,212.88
1973-07-09,1400.43
1973-07-10,1743.46
1973-07-11,1210.3
1973-07-12,755.85
1973-07-13,737.96
1973-07-14,716.64
1973-07-15,121.24
1973-07-16,1748.76
1973-07-17,2001.28
1973-07-18,1561.39
1973-07-19,680.69
1973-07-20,825.16
1973-07-21,1442.17
1973-07-22,1572.08
1973-07-23,2376.02
1973-07-24,2432.2
1973-07-25,1956.33
1973-07-26,1801.42
1973-07-27,2166.83
1973-07-28,1577.34
1973-07-29,1120.32
1973-07-30,2115.75
1973-07-31,1688.41
1973-08-01,2215.61
1973-08-02,2256.89
1973-08-03,2377.52
1973-08-04,1893.84
1973-08-05,2102.25
1973-08-06,1926.4
1973-08-07,1814.23
1973-08-08,1999.18
1973-08-09,2196.59
1973-08-10,2535.58
1973-08-11,2473.38
1973-08-12,2104.21
1973-08-13,2032.52
1973-08-14,2531.91
1973-08-15,2295.32
1973-08-16,2332.84
1973-08-17,2576.24
1973-08-18,2443.54
1973-08-19,2284.22
1973-08-20,2474.7
1973-08-21,2610.21
1973-08-22,2620.35
1973-08-23,2675.46
1973-08-24,2709.79
1973-08-25,2191.8
1973-08-26,2267.59
1973-08-27,2217.64
1973-08-28,1900.73
1973-08-29,1529.7
1973-08-30,1676.36
1973-08-31,2182.62
1973-09-01,1734.92
1973-09-02,1754.18
1973-09-03,922.59
1973-09-04,1947.92
1973-09-05,2043.64
1973-09-06,2159.29
1973-09-07,2453.65
1973-09-08,2350.6
1973-09-09,2170.87
1973-09-10,2329.18
1973-09-11,2370.31
1973-09-12,1602.55
1973-09-13,1375.17
1973-09-14,1495.73
1973-09-15,1714.28
1973-09-16,1602.5
1973-09-17,1394.54
1973-09-18,1101.88
1973-09-19,834.54
1973-09-20,1287.99
1973-09-21,831.0
1973-09-22,1550.18
1973-09-23,599.77
1973-09-24,1588.72
1973-09-25,1268.5
1973-09-26,1157.47
1973-09-27,955.0
1973-09-28,1203.02
1973-09-29,778.84
1973-09-30,762.76
1973-10-01,849.470886
1973-10-02,939.939331
1973-10-03,679.869934
1973-10-04,898.02832
1973-10-05,815.507019
1973-10-06,709.890625
1973-10-07,635.544373
1973-10-08,979.253662
1973-10-09,1023.16058
1973-10-10,1246.16541
1973-10-11,939.37561
1973-10-12,1312.6886
1973-10-13,963.649963
1973-10-14,1011.04333
1973-10-15,854.828918
1973-10-16,911.19696
1973-10-17,1303.52454
1973-10-18,1196.31934
1973-10-19,444.88269
1973-10-20,26.4479237
1973-10-21,39.9315071
1973-10-22,72.703064
1973-10-23,66.3464508
1973-10-24,81.5689621
1973-10-25,77.7926254
1973-10-26,30.9865265
1973-10-27,31.3295174
1973-10-28,38.839077
1973-10-29,167.442291
1973-10-30,73.3872986
1973-10-31,68.6332626
1973-11-01,430.068176
1973-11-02,527.465271
1973-11-03,283.965637
1973-11-04,1469.52136
1973-11-05,1812.76257
1973-11-06,1587.08838
1973-11-07,1775.95667
1973-11-08,1688.42041
1973-11-09,1728.52917
1973-11-10,424.375427
1973-11-11,401.454865
1973-11-12,802.107605
1973-11-13,1427.82861
1973-11-14,1358.76965
1973-11-15,1683.19238
1973-11-16,1101.07507
1973-11-17,1601.47961
1973-11-18,1272.55359
1973-11-19,1965.16577
1973-11-20,1916.23047
1973-11-21,2221.26099
1973-11-22,549.190918
1973-11-23,1634.73962
1973-11-24,1707.6864
1973-11-25,1498.13489
1973-11-26,941.666443
1973-11-27,103.220108
1973-11-28,1441.70154
1973-11-29,617.616028
1973-11-30,1902.29114
1973-12-01,1630.01123
1973-12-02,736.744751
1973-12-03,1570.18018
1973-12-04,2133.56128
1973-12-05,1086.37964
1973-12-06,1314.79626
1973-12-07,1626.16846
1973-12-08,1591.06934
1973-12-09,341.610168
1973-12-10,1953.39319
1973-12-11,1506.42053
1973-12-12,1609.12634
1973-12-13,1564.70605
1973-12-14,1593.07495
1973-12-15,1132.94458
1973-12-16,345.761322
1973-12-17,2012.54688
1973-12-18,2682.65796
1973-12-19,2749.18433
1973-12-20,2642.28979
1973-12-21,2838.9707
1973-12-22,2859.73706
1973-12-23,2809.12939
1973-12-24,2109.30981
1973-12-25,1841.83984
1973-12-26,2855.77295
1973-12-27,2864.02881
1973-12-28,2542.03955
1973-12-29,2316.50952
1973-12-30,2335.09668
1973-12-31,2640.87061
1974-01-01,2810.5957
1974-01-02,2576.21851
1974-01-03,2328.83594
1974-01-04,2123.15723
1974-01-05,2512.01807
1974-01-06,2663.01855
1974-01-07,2401.99976
1974-01-08,2615.56226
1974-01-09,2576.71411
1974-01-10,2551.63843
1974-01-11,2504.82056
1974-01-12,2702.62695
1974-01-13,2753.4751
1974-01-14,2592.75122
1974-01-15,2877.34082
1974-01-16,2933.92358
1974-01-17,2788.07446
1974-01-18,2968.01001
1974-01-19,2994.56616
1974-01-20,2703.16162
1974-01-21,2530.16772
1974-01-22,2716.68823
1974-01-23,2754.07275
1974-01-24,2766.89453
1974-01-25,2480.06445
1974-01-26,1186.99353
1974-01-27,1544.4917